Pasco, WA

3:38 AM PDT on October 20, 2017 (GMT -0700)
Tri-Cities

Weather History for KPSC - February, 2013

Change the Weather History Date:

Sunday, February 17, 2013

  Actual Average Record
Temperature  
Mean Temperature 38 °F 39 °F  
Max Temperature 53 °F 50 °F 68 °F (2007)
Min Temperature 22 °F 28 °F 11 °F (1993)
Degree Days  
Heating Degree Days 27 26  
Month to date heating degree days 437 461  
Since 1 July heating degree days 3348 3612  
Cooling Degree Days 0 0  
Month to date cooling degree days 0 0  
Year to date cooling degree days 0 0  
Moisture  
Dew Point 26 °F    
Average Humidity 66    
Maximum Humidity 96    
Minimum Humidity 35    
Precipitation  
Precipitation 0.00 in 0.03 in 0.40 in (1989)
Month to date precipitation T 0.54  
Year to date precipitation 0.36 1.76  
Snow  
Snow 0.00 in - - ()
Snow Depth 0.00 in    
Sea Level Pressure  
Sea Level Pressure 30.14 in    
Wind  
Wind Speed 8 mph (SSW)    
Max Wind Speed 18 mph    
Max Gust Speed 22 mph    
Visibility 10 miles    
Events      
T = Trace of Precipitation, MM = Missing Value Source: NWS Daily Summary

Daily Weather History Graph

Daily Weather History Graph

Search for Another Location

Airport or City:

Trip Planner

Search our weather history database for the weather conditions in past years. The results will help you decide how hot, cold, wet, or windy it might be!

Date:

Astronomy

Feb. 17, 2013 Rise Set
Actual Time 6:55 AM PST 5:25 PM PST
Civil Twilight 6:25 AM PST 5:56 PM PST
Nautical Twilight 5:50 AM PST 6:31 PM PST
Astronomical Twilight 5:15 AM PST 7:06 PM PST
Moon 10:25 AM PST (2/17) 12:52 AM PST (2/17)
Length of Visible Light 11h 31m
Length of Day
10h 30m
Waxing Crescent, 50% of the Moon is Illuminated
Feb 17
Waxing Crescent
Feb 17
First Quarter
Feb 25
Full
Mar 4
Last Quarter
Mar 11
New

Hourly Weather History & Observations

Time (PST) Temp. Windchill Dew Point Humidity Pressure Visibility Wind Dir Wind Speed Gust Speed Precip Events Conditions
12:53 AM 39.9 °F 32.9 °F 30.0 °F 68% 30.11 in 10.0 mi WSW 11.5 mph - N/A   Clear
1:53 AM 39.0 °F 30.6 °F 28.9 °F 67% 30.11 in 10.0 mi WSW 15.0 mph - N/A   Clear
2:53 AM 34.0 °F 29.8 °F 28.0 °F 79% 30.12 in 10.0 mi East 4.6 mph - N/A   Clear
3:53 AM 30.0 °F - 25.0 °F 82% 30.13 in 10.0 mi Calm Calm - N/A   Clear
4:53 AM 28.9 °F - 25.0 °F 85% 30.14 in 10.0 mi Calm Calm - N/A   Clear
5:53 AM 24.1 °F - 21.0 °F 88% 30.16 in 10.0 mi Calm Calm - N/A   Clear
6:53 AM 23.0 °F - 21.0 °F 92% 30.16 in 10.0 mi Calm Calm - N/A   Clear
7:53 AM 28.9 °F - 25.0 °F 85% 30.17 in 10.0 mi Calm Calm - N/A   Clear
8:53 AM 42.1 °F 35.7 °F 30.0 °F 62% 30.17 in 10.0 mi SSW 11.5 mph - N/A   Clear
10:53 AM 48.9 °F - 27.0 °F 43% 30.18 in 10.0 mi SW 10.4 mph - N/A   Clear
11:53 AM 51.1 °F - 27.0 °F 39% 30.17 in 10.0 mi WSW 12.7 mph - N/A   Clear
12:53 PM 52.0 °F - 26.1 °F 37% 30.15 in 10.0 mi SW 12.7 mph - N/A   Clear
1:53 PM 52.0 °F - 25.0 °F 35% 30.14 in 10.0 mi SSW 12.7 mph - N/A   Clear
2:53 PM 52.0 °F - 25.0 °F 35% 30.13 in 10.0 mi SW 9.2 mph 16.1 mph N/A   Clear
3:53 PM 51.1 °F - 26.1 °F 38% 30.13 in 10.0 mi SSW 12.7 mph - N/A   Clear
5:53 PM 44.1 °F 40.1 °F 26.1 °F 49% 30.13 in 10.0 mi South 6.9 mph - N/A   Clear
6:53 PM 42.1 °F 38.4 °F 26.1 °F 53% 30.13 in 10.0 mi South 5.8 mph - N/A   Clear
7:53 PM 41.0 °F 36.4 °F 27.0 °F 57% 30.14 in 10.0 mi SSE 6.9 mph - N/A   Clear
9:53 PM 37.0 °F 34.5 °F 26.1 °F 65% 30.14 in 10.0 mi SSW 3.5 mph - N/A   Clear
10:53 PM 36.0 °F 29.0 °F 25.0 °F 64% 30.14 in 10.0 mi SSW 9.2 mph - N/A   Clear
11:53 PM 33.1 °F 28.7 °F 25.0 °F 72% 30.13 in 10.0 mi NE 4.6 mph - N/A   Clear